Showing default

TJS-1, 40892

Orbit data source: Space-Track

TJS-1, 40892 is a payload satellite owned by CASC (CN) in GEO that was launched on Sat, 12 Sep 2015 UTC via a CHANG ZHENG 3B launch vehicle from the Xichang Space Center, China (XSC). Payload-class satellites include a variety of spacecraft equipped with specific instruments for various scientific and technological missions. These include communications satellites like Starlink; space stations such as the ISS; scientific satellites like the Hubble; Earth observation satellites from companies like Planet Labs, Umbra, and HawkEye 360; GPS; miniature CubeSats for education and research; and military/defense satellites.

Not visible in the next 10 days
Identifier
40892, 2015-046A
Orbit
GEO
Last TLE update
10 hours ago
Origin
Manufacturer
CAST
Mission
Operational Defense Communications
Bus & Motor
DFH-4?, DFH-4 LAE
Mass
~4,000 kg wet, ~2,500 kg dry
Launch date (UTC)
2015-09-12 (10 years ago)
Launch vehicle
CHANG ZHENG 3B
Launch site
Xichang Space Center, China (XSC)
Object type
Payload
Rocket body
Debris
Shape & HBR
Box + 2 Pan, 30 m
Radar Cross Section
34.063 m², Large (>1 m²)

Expand to show TLE details & history

TLE from 10 hours ago
0 TJS-1
1 40892U 15046A   25115.19983142 -.00000153  00000-0  00000+0 0  9999
2 40892   0.0364 213.4082 0002088 195.7796  31.3049  1.00271060 35364
Epoch: 2025-04-25T04:47Z
Definitive object data (Epoch: 2025-04-25T04:47:45.434Z)
Latitude
-0.03862°
Longitude
155.09841°
Altitude
35,778.757 km
Speed
3.075 km/s
True Right ascension
05h 21m 59s
True Declination
0° 02' 19"
Sunlit
Object was in daylight at TLE epoch
Visualization TLE readout
Latitude
0.0181°
Longitude
-47.06283°
Altitude
35,795.026 km
Speed
3.074 km/s
Apparent Right ascension
15h 27m 43s
Apparent Declination
-5° 21' 22"
Sunlit
Object is in daylight
Visualization observer readout
Local Sidereal Time
22:32:33
Azimuth
276.368° WNW
Elevation
-15.844°
Doppler factor
1
Orbital elements
Apogee altitude
35,796.673 km
Perigee altitude
35,779.064 km
Semi-major axis
42,166.006 km
Eccentricity
0.0002088
Inclination
0.0364°
RAAN
213.4082°
Arg. of periapsis
195.7796°
True anomaly
31.31733°
Mean anomaly
31.3049°
Eccentric anomaly
31.31112°
Mean motion
0.25067 °/min
BSTAR
Unknown
Orbital period
1436.16 mins
Loading historical data...
40892 neighbors
Loading maneuver chart data...
Loading SW <> Apogee altitude chart data...
Loading historical data...
Loading historical data...
Loading historical data...
Loading historical data...
Loading historical data...
Loading historical data...
Loading historical data...
Other satellites on launch #46 in the year 2015 (2015-09-12 UTC)

TJS-1 Visibility forecast

Observer location: undefined°, undefined°

TJS-1 is not visible in the next 10 days
Span
Click to sort rows by Start time (UTC) header in descending order
Start Az.
Max El. time (UTC)
Max El. Az.
Max El.
End time (UTC)
End Az.
|